Voltar ao catálogo

ATLAS 5 CENTAUR DEB

LostHEO
NORAD 49377·DEBRIS·🇺🇸 United States

Lançado Oct 17, 2018 de Cape Canaveral Space Force Station

Loading…

Próximas Passagens (próximas 24 horas)

TLE

ObsoletoSource: Space-Track

Época: Apr 19, 2024, 01:04 UTC

1 49377U 18079GE  24110.04496455 -.00000037  00000-0  00000+0 0  9990
2 49377  11.9809 100.7625 4793280 196.4848 140.0055  1.84829731 17819

Acompanhe ATLAS 5 CENTAUR DEB em tempo real com AllMySat

Download on the App Store